Weather History for KBQP - August, 2014

Change the Weather History Date:

Friday, August 22, 2014

  Actual Average (KMLU) Record (KMLU)
Temperature  
Mean Temperature 83 °F 82 °F  
Max Temperature 96 °F 94 °F 102 °F (2011)
Min Temperature 70 °F 71 °F 55 °F (1961)
Degree Days  
Heating Degree Days 0 0  
Month to date heating degree days 0  
Since 1 June heating degree days 0  
Since 1 July heating degree days 0  
Cooling Degree Days 18 17  
Month to date cooling degree days 395  
Year to date cooling degree days 1855  
Since 1 June cooling degree days 1420  
Growing Degree Days 33 (Base 50)    
Moisture  
Dew Point 71 °F    
Average Humidity 73    
Maximum Humidity 97    
Minimum Humidity 36    
Precipitation  
Precipitation 0.00 in 0.11 in 0.77 in (1961)
Month to date precipitation 2.20  
Year to date precipitation 34.50  
Snow  
Snow 0.00 in - - ()
Month to date snowfall  
Since 1 June snowfall  
Since 1 July snowfall  
Snow Depth -    
Sea Level Pressure  
Sea Level Pressure 30.07 in    
Wind  
Wind Speed 3 mph (SW)    
Max Wind Speed 8 mph    
Max Gust Speed -    
Visibility 9 miles    
Events      
T = Trace of Precipitation, MM = Missing Value Source: NWS Daily Summary

Daily Weather History Graph

Daily Weather History Graph

Search for Another Location

Airport or City:

Trip Planner

Search our weather history database for the weather conditions in past years. The results will help you decide how hot, cold, wet, or windy it might be!

Date:

Astronomy

Aug. 22, 2014 Rise Set
Actual Time 6:35 AM CDT 7:44 PM CDT
Civil Twilight 6:10 AM CDT 8:10 PM CDT
Nautical Twilight 5:39 AM CDT 8:40 PM CDT
Astronomical Twilight 5:08 AM CDT 9:11 PM CDT
Moon 4:02 AM CDT (8/22) 5:50 PM CDT (8/22)
Length of Visible Light 14h 00m
Length of Day
13h 08m
Waning Crescent, 7% of the Moon is Illuminated
Aug 22
Waning Crescent
Aug 25
New
Sep 2
First Quarter
Sep 8
Full
Sep 15
Last Quarter

Hourly Weather History & Observations

Time (CDT) Temp. Heat Index Dew Point Humidity Pressure Visibility Wind Dir Wind Speed Gust Speed Precip Events Conditions
12:15 AM 74.3 °F - 70.0 °F 86% 30.08 in 10.0 mi South 3.5 mph - N/A   Clear
12:35 AM 74.1 °F - 70.0 °F 87% 30.08 in 10.0 mi South 3.5 mph - N/A   Clear
12:55 AM 73.9 °F - 70.2 °F 88% 30.07 in 10.0 mi SSW 3.5 mph - N/A   Clear
1:15 AM 73.9 °F - 70.2 °F 88% 30.07 in 10.0 mi SSW 3.5 mph - N/A   Clear
1:35 AM 73.9 °F - 70.3 °F 88% 30.07 in 10.0 mi SSW 3.5 mph - N/A   Clear
2:15 AM 73.4 °F - 70.7 °F 91% 30.06 in 10.0 mi South 3.5 mph - N/A   Clear
2:35 AM 73.4 °F - 70.9 °F 92% 30.07 in 10.0 mi Calm Calm - N/A   Clear
2:55 AM 72.9 °F - 70.9 °F 93% 30.07 in 10.0 mi Calm Calm - N/A   Clear
3:15 AM 72.7 °F - 70.9 °F 94% 30.08 in 10.0 mi South 3.5 mph - N/A   Clear
3:35 AM 72.5 °F - 70.9 °F 95% 30.08 in 10.0 mi South 3.5 mph - N/A   Clear
3:55 AM 72.7 °F - 71.1 °F 95% 30.08 in 10.0 mi Calm Calm - N/A   Clear
4:15 AM 72.5 °F - 70.9 °F 95% 30.08 in 10.0 mi Calm Calm - N/A   Clear
4:35 AM 72.5 °F - 70.9 °F 95% 30.09 in 10.0 mi Calm Calm - N/A   Clear
4:55 AM 71.8 °F - 70.3 °F 95% 30.09 in 7.0 mi Calm Calm - N/A   Clear
5:15 AM 70.7 °F - 69.8 °F 97% 30.09 in 1.8 mi Calm Calm - N/A   Mist
5:35 AM 71.6 °F - 70.3 °F 96% 30.09 in 7.0 mi Calm Calm - N/A   Clear
5:55 AM 70.9 °F - 69.8 °F 96% 30.09 in 7.0 mi Calm Calm - N/A   Clear
6:15 AM 70.5 °F - 69.6 °F 97% 30.09 in 7.0 mi Calm Calm - N/A   Clear
6:35 AM 71.6 °F - 70.7 °F 97% 30.09 in 7.0 mi Calm Calm - N/A   Clear
6:55 AM 71.8 °F - 70.7 °F 96% 30.10 in 5.0 mi Calm Calm - N/A   Clear
7:15 AM 72.3 °F - 71.4 °F 97% 30.11 in 5.0 mi Calm Calm - N/A   Clear
7:35 AM 73.4 °F - 72.5 °F 97% 30.12 in 5.0 mi Calm Calm - N/A   Clear
7:55 AM 75.0 °F - 73.4 °F 95% 30.12 in 7.0 mi South 3.5 mph - N/A   Clear
8:15 AM 76.8 °F - 73.9 °F 91% 30.12 in 7.0 mi South 3.5 mph - N/A   Clear
8:35 AM 78.1 °F - 74.1 °F 88% 30.12 in 7.0 mi SSW 3.5 mph - N/A   Clear
8:55 AM 79.7 °F - 74.3 °F 83% 30.12 in 10.0 mi SW 6.9 mph - N/A   Clear
9:15 AM 81.5 °F 87.4 °F 74.5 °F 79% 30.11 in 10.0 mi SW 8.1 mph - N/A   Clear
9:35 AM 82.9 °F 90.2 °F 75.0 °F 77% 30.12 in 10.0 mi WSW 8.1 mph - N/A   Clear
9:55 AM 84.2 °F 91.6 °F 74.5 °F 72% 30.12 in 7.0 mi SW 6.9 mph - N/A   Clear
10:15 AM 86.0 °F 94.2 °F 74.3 °F 68% 30.11 in 10.0 mi West 8.1 mph - N/A   Clear
10:35 AM 86.9 °F 95.0 °F 73.9 °F 65% 30.11 in 10.0 mi WSW 4.6 mph - N/A   Clear
10:55 AM 87.1 °F 94.9 °F 73.8 °F 64% 30.12 in 10.0 mi SW 8.1 mph - N/A   Clear
11:15 AM 88.7 °F 96.2 °F 72.5 °F 59% 30.12 in 10.0 mi SW 5.8 mph - N/A   Clear
11:35 AM 89.6 °F 96.6 °F 71.8 °F 56% 30.12 in 10.0 mi SW 8.1 mph - N/A   Clear
11:55 AM 90.3 °F 96.7 °F 71.1 °F 53% 30.12 in 10.0 mi West 6.9 mph - N/A   Clear
12:15 PM 90.3 °F 96.7 °F 71.1 °F 53% 30.11 in 10.0 mi SW 3.5 mph - N/A   Clear
12:35 PM 91.6 °F 99.9 °F 72.7 °F 54% 30.10 in 10.0 mi SSW 5.8 mph - N/A   Clear
12:55 PM 91.8 °F 99.1 °F 71.6 °F 52% 30.10 in 10.0 mi South 4.6 mph - N/A   Clear
1:15 PM 92.7 °F 100.5 °F 72.1 °F 51% 30.09 in 10.0 mi South 4.6 mph - N/A   Clear
1:35 PM 92.8 °F 100.3 °F 71.8 °F 50% 30.09 in 10.0 mi South 4.6 mph - N/A   Clear
1:55 PM 93.9 °F 101.5 °F 71.2 °F 48% 30.08 in 10.0 mi SW 5.8 mph - N/A   Clear
2:15 PM 93.7 °F 100.5 °F 70.9 °F 47% 30.08 in 10.0 mi Calm Calm - N/A   Clear
2:35 PM 95.0 °F 100.7 °F 69.1 °F 43% 30.07 in 10.0 mi SW 5.8 mph - N/A   Clear
2:55 PM 95.0 °F 100.1 °F 68.4 °F 42% 30.06 in 10.0 mi SW 5.8 mph - N/A   Clear
3:15 PM 94.3 °F 98.7 °F 68.0 °F 42% 30.06 in 10.0 mi Calm Calm - N/A   Clear
3:35 PM 95.2 °F 99.3 °F 67.6 °F 40% 30.05 in 10.0 mi Calm Calm - N/A   Clear
3:55 PM 96.1 °F 99.3 °F 66.2 °F 37% 30.05 in 10.0 mi WSW 5.8 mph - N/A   Clear
4:15 PM 95.5 °F 97.9 °F 64.9 °F 36% 30.04 in 10.0 mi WSW 5.8 mph - N/A   Clear
4:35 PM 95.7 °F 98.2 °F 64.9 °F 36% 30.03 in 10.0 mi West 4.6 mph - N/A   Clear
4:55 PM 95.5 °F 98.9 °F 66.0 °F 38% 30.03 in 10.0 mi WSW 5.8 mph - N/A   Clear
5:15 PM 95.5 °F 98.9 °F 66.0 °F 38% 30.02 in 10.0 mi West 5.8 mph - N/A   Clear
5:35 PM 95.0 °F 97.0 °F 64.2 °F 36% 30.02 in 10.0 mi WSW 3.5 mph - N/A   Clear
5:55 PM 94.3 °F 97.2 °F 65.5 °F 39% 30.02 in 10.0 mi Calm Calm - N/A   Clear
6:15 PM 92.5 °F 99.0 °F 70.9 °F 49% 30.01 in 10.0 mi South 5.8 mph - N/A   Clear
6:55 PM 88.7 °F 96.2 °F 72.7 °F 59% 30.00 in 10.0 mi Calm Calm - N/A   Clear
7:15 PM 85.1 °F 92.6 °F 73.9 °F 69% 30.01 in 10.0 mi Calm Calm - N/A   Clear
7:35 PM 82.0 °F 87.7 °F 73.6 °F 75% 30.01 in 10.0 mi Calm Calm - N/A   Clear
7:55 PM 79.3 °F - 72.3 °F 79% 30.01 in 10.0 mi Calm Calm - N/A   Clear
8:15 PM 78.4 °F - 71.1 °F 78% 30.01 in 10.0 mi Calm Calm - N/A   Clear
8:55 PM 75.7 °F - 70.9 °F 85% 30.02 in 10.0 mi Calm Calm - N/A   Clear
9:15 PM 75.0 °F - 70.3 °F 85% 30.02 in 10.0 mi Calm Calm - N/A   Clear
9:35 PM 75.0 °F - 70.2 °F 85% 30.03 in 10.0 mi Calm Calm - N/A   Clear
9:55 PM 74.8 °F - 70.2 °F 85% 30.03 in 10.0 mi Calm Calm - N/A   Clear
10:15 PM 73.9 °F - 70.2 °F 88% 30.03 in 10.0 mi Calm Calm - N/A   Clear
10:35 PM 73.2 °F - 70.0 °F 90% 30.02 in 10.0 mi Calm Calm - N/A   Clear
10:55 PM 75.4 °F - 70.7 °F 85% 30.02 in 10.0 mi Calm Calm - N/A   Clear
11:15 PM 76.1 °F - 70.9 °F 84% 30.02 in 10.0 mi SW 3.5 mph - N/A   Clear
11:35 PM 74.3 °F - 70.2 °F 87% 30.02 in 10.0 mi Calm Calm - N/A   Clear